Flag for Netherlands Weather past 2 weeks in Arnhem, Netherlands

43 °F

More clouds than sun.

Feels Like: 36 °F
Forecast: 41 / 45 °F
Wind: 12 mph from South

Location: Deelen

Current Time: Nov 27, 2015 at 4:42:35 PM

Latest Report: Nov 27, 2015 at 3:55 PM

Visibility: N/A

Pressure: 29.86 "Hg

Humidity: 93%

Dew point: 41 °F

Location of ArnhemLocation

Historic Weather in Arnhem — Graph


Arnhem temperature yesterday

Maximum temperature yesterday: 46 °F (at 1:25 PM)
Minimum temperature yesterday: 27 °F (at 7:55 AM)
Average temperature yesterday: 37 °F

Past Weeks' High & Low Weather Summary

High59 °F (Nov 17, 8:25 PM)100% (Nov 14, 6:25 AM)30.24 "Hg (Nov 14, 6:25 AM)
Low27 °F (Nov 23, 8:25 AM)55% (Nov 13, 1:55 PM)29.33 "Hg (Nov 21, 6:25 AM)
Average45 °F89%29.86 "Hg
* Reported Nov 12 3:25 PM — Nov 27 3:25 PM, Arnhem, Weather by CustomWeather, © 2015

Note: Actual official high and low records may vary slightly from our data, if they occured in-between our weather recording intervals... More about our weather records


Arnhem weather history for previous 24 hours

Time TempWeatherWind HumidityBarometerVisibility
3:25 PM
Fri, Nov 27
41 °FDrizzle. Broken clouds.10 mph100%29.89 "Hg4 mi
2:55 PM41 °FFog.14 mph100%29.89 "Hg3 mi
2:25 PM43 °FBroken clouds.13 mph87%29.92 "HgN/A
1:55 PM43 °FMore clouds than sun.13 mph87%29.92 "HgN/A
1:25 PM41 °FOvercast.13 mph93%29.92 "HgN/A
12:55 PM41 °FOvercast.13 mph93%29.95 "HgN/A
12:25 PM41 °FOvercast.13 mph87%29.98 "HgN/A
11:55 AM39 °FOvercast.13 mph93%29.98 "HgN/A
11:25 AM39 °FOvercast.12 mph93%30.01 "HgN/A
10:55 AM37 °FFog.10 mph100%30.01 "Hg5 mi
10:25 AM37 °FFog.9 mph100%30.01 "Hg3 mi
9:55 AM37 °FFog.10 mph100%30.01 "Hg2 mi
9:25 AM37 °FFog.12 mph100%30.04 "Hg1 mi
8:55 AM36 °FFog.12 mph100%30.04 "Hg1 mi
8:25 AM36 °FFog.10 mph100%30.04 "Hg1 mi
7:55 AM36 °FFog.9 mph100%30.04 "Hg1 mi
7:25 AM36 °FFog.8 mph100%30.04 "Hg1 mi
6:55 AM36 °FFog.10 mph100%30.04 "Hg1 mi
6:25 AM36 °FFog.10 mph100%30.07 "Hg1 mi
5:55 AM36 °FFog.10 mph100%30.07 "Hg2 mi
4:55 AM34 °FFog.7 mph100%30.07 "Hg4 mi
4:25 AM34 °FFog.7 mph100%30.09 "Hg5 mi
3:55 AM34 °FFog.6 mph100%30.09 "Hg4 mi
3:25 AM34 °FPassing clouds.5 mph100%30.09 "HgN/A
2:55 AM34 °FPassing clouds.3 mph100%30.12 "HgN/A
2:25 AM34 °FFog.2 mph93%30.12 "Hg4 mi
1:55 AM34 °FFog.2 mph100%30.12 "Hg3 mi
1:25 AM34 °FFog.2 mph100%30.12 "Hg6 mi
12:55 AM34 °FPassing clouds.3 mph100%30.12 "HgN/A
12:25 AM32 °FIce fog.3 mph100%30.12 "Hg6 mi
11:55 PM
Thu, Nov 26
32 °FIce fog.2 mph100%30.12 "Hg2 mi
10:55 PM32 °FPassing clouds.2 mph100%30.12 "HgN/A
10:25 PM30 °FClear.3 mph100%30.15 "HgN/A
10:04 PM30 °FIce fog.3 mph100%30.15 "Hg5 mi
9:25 PM30 °FPassing clouds.3 mph100%30.15 "HgN/A
8:55 PM32 °FPassing clouds.2 mph93%30.15 "HgN/A
8:25 PM32 °FPassing clouds.2 mph100%30.15 "HgN/A
7:55 PM34 °FPassing clouds.2 mph100%30.12 "HgN/A
7:25 PM34 °FOvercast.1 mph100%30.12 "HgN/A
6:55 PM36 °FPassing clouds.2 mph93%30.12 "HgN/A
6:25 PM32 °FIce fog.3 mph100%30.12 "Hg2 mi
5:55 PM36 °FFog.1 mph100%30.12 "Hg1 mi
5:25 PM36 °FFog.1 mph100%30.09 "Hg1 mi
4:55 PM37 °FPassing clouds.1 mph93%30.09 "HgN/A
4:25 PM41 °FPassing clouds.3 mph87%30.09 "HgN/A
Weather by CustomWeather, © 2015

See weather overviewHow to use our weather pages